Date,TemperatureHighF,TemperatureAvgF,TemperatureLowF,DewpointHighF,DewpointAvgF,DewpointLowF,HumidityHigh,HumidityAvg,HumidityLow,PressureMaxIn,PressureMinIn,WindSpeedMaxMPH,WindSpeedAvgMPH,GustSpeedMaxMPH,PrecipitationSumIn
2013-1-7,33.4,33.4,33.4,24.0,24.0,24.0,69,69,69,30.34,30.34,0,0,0,0.00
2013-3-26,49.6,49.6,49.6,23.7,23.4,23.0,36,36,35,30.29,30.29,3,3,5,0.00
2013-4-25,-200.0,0.0,200.0,-99.9,-99.9,-99.9,0,0,100,29.91,29.91,0,-999,16,0.00
2013-5-1,59.3,51.6,57.4,49.5,16.2,-99.9,75,57,69,30.22,30.20,0,-111,0,0.00
2013-5-2,62.8,59.0,57.0,52.5,51.6,51.0,81,77,69,30.27,30.03,0,0,6,0.00
2013-5-4,65.3,48.9,65.1,52.4,14.2,-99.9,63,47,63,30.63,30.62,0,-250,1,0.00
2013-6-12,75.9,69.8,60.8,59.0,54.7,-99.9,87,62,52,29.79,29.70,10,-14,16,0.00
2013-6-13,65.9,60.0,56.0,62.0,58.2,55.0,97,94,78,29.78,29.41,5,1,15,0.92
2013-6-14,72.3,59.5,53.2,62.0,55.9,53.0,98,88,62,29.81,29.44,3,0,17,0.18
2013-6-15,81.0,69.5,58.5,64.0,57.9,53.0,91,69,41,29.94,29.81,8,1,11,0.00
2013-6-16,79.7,66.0,57.6,62.0,58.4,55.0,95,79,45,29.93,29.79,8,0,8,0.00
2013-7-30,82.8,82.7,82.7,78.1,77.9,77.7,86,86,85,29.71,29.71,0,0,6,0.00
2013-8-9,89.2,88.9,88.8,82.2,81.9,81.8,80,80,80,29.96,29.84,7,5,13,0.00
2013-9-23,66.4,59.9,51.1,49.0,47.3,44.9,84,65,51,29.99,29.89,5,1,10,0.00
2013-9-24,72.2,57.8,45.3,52.0,47.1,42.0,88,70,45,29.99,29.81,8,1,9,0.00
2013-9-25,71.4,59.9,49.4,54.0,50.0,47.0,92,72,48,29.89,29.82,4,0,7,0.00
2013-9-26,71.0,60.7,52.4,63.0,56.0,51.0,97,85,62,30.05,29.88,2,0,5,0.00
2013-9-27,68.8,59.8,51.0,60.0,54.2,49.0,96,82,66,30.21,30.04,1,0,5,0.00
2013-9-28,77.0,64.1,53.9,61.0,55.3,51.0,94,75,53,30.26,30.18,3,0,6,0.00
2013-9-29,75.0,61.4,52.1,62.0,53.6,50.0,95,77,46,30.18,30.03,2,0,7,0.00
2013-9-30,75.1,61.3,50.6,62.0,54.3,48.0,96,80,51,30.03,29.92,4,0,7,0.00
2013-10-1,81.3,66.0,52.0,61.0,56.5,50.0,96,74,46,29.94,29.84,3,0,8,0.01
2013-10-2,84.1,70.4,57.9,65.0,60.9,55.0,93,74,51,29.95,29.84,6,0,11,0.00
2013-10-3,78.9,67.7,55.8,60.0,57.2,53.0,94,71,50,30.06,29.95,3,0,7,0.00
2013-10-4,84.8,71.1,60.5,70.0,64.1,58.0,94,80,58,30.01,29.91,3,0,10,0.00
2013-10-5,77.7,68.3,63.9,68.0,64.6,62.0,95,88,70,30.04,29.96,2,0,6,0.00
2013-10-6,68.3,66.0,64.8,68.0,65.0,63.0,97,96,93,30.05,29.99,2,0,6,0.01
2013-10-7,75.5,68.9,61.0,72.0,66.4,55.0,97,92,80,29.99,29.75,10,2,22,0.29
2013-10-8,68.2,59.5,53.0,55.0,48.8,46.0,86,69,47,30.26,29.93,5,1,10,0.00
2013-10-9,64.6,57.4,50.9,54.0,49.9,46.0,87,77,66,30.33,30.23,4,0,7,0.00
2013-10-10,64.5,58.8,54.2,59.0,54.7,49.0,92,86,81,30.23,30.02,3,0,7,0.02
2013-10-11,67.2,63.1,59.1,62.0,58.6,55.0,91,85,74,30.04,29.96,4,0,8,0.00
2013-10-12,73.4,64.4,59.2,59.0,52.5,43.0,82,67,37,30.23,30.02,4,0,9,0.00
2013-10-13,67.5,59.4,52.8,57.0,52.8,48.0,88,79,66,30.32,30.21,2,0,10,0.00
2013-10-14,68.5,55.6,46.0,56.0,49.6,43.0,93,81,63,30.31,30.20,3,0,9,0.00
2013-10-15,75.5,58.3,47.9,61.0,50.9,46.0,99,78,46,30.20,30.06,4,0,6,0.00
2013-10-16,67.4,60.4,51.4,60.0,57.0,48.0,94,88,77,30.06,29.87,2,0,6,0.00
2013-10-17,73.3,64.7,61.2,64.0,61.7,60.0,95,90,72,29.87,29.65,4,0,7,0.02
2013-10-18,68.8,62.9,54.6,63.0,51.2,45.0,95,67,47,29.92,29.62,8,2,13,0.02
2013-10-19,64.7,55.4,44.2,58.0,48.4,41.0,94,78,55,29.94,29.70,4,0,9,0.00
2013-10-20,63.3,56.0,47.4,57.0,44.0,39.0,89,66,41,30.00,29.69,5,1,12,0.01
2013-10-21,67.4,54.2,40.9,50.0,42.6,38.0,93,68,36,30.09,29.93,3,0,9,0.00
2013-10-22,69.7,58.1,48.4,54.0,48.5,43.0,93,72,50,29.93,29.69,4,1,10,0.00
2013-10-23,52.7,48.9,42.8,46.0,40.7,38.0,90,74,62,29.75,29.55,7,0,8,0.00
2013-10-24,54.5,47.4,41.4,38.0,34.5,29.0,80,63,40,29.88,29.68,5,1,16,0.00
2014-1-2,26.3,24.6,19.6,24.0,22.2,18.0,99,91,90,29.80,29.61,2,1,8,0.00